Regional Weather Roundup
Issued by NWS

Home | Current Version | Previous Version | Graphics & Text | Print | Product List | Glossary On
Versions: 1 2 3 4 5 6 7 8 9 10 11 12 13 14 15 16 17 18 19 20 21 22 23 24 25 26 27 28 29 30 31 32 33 34 35 36 37 38 39 40 41 42 43 44 45 46 47 48 49 50
000
ASUS45 KBOU 031407
RWRCO

WEATHER ROUNDUP FOR COLORADO
NATIONAL WEATHER SERVICE DENVER/BOULDER CO
800 AM MDT MON AUG 03 2015

NOTE: "FAIR" INDICATES FEW OR NO CLOUDS BELOW 12000 FEET WITH NO
SIGNIFICANT WEATHER AND/OR OBSTRUCTIONS TO VISIBILITY.

COZ001>005-013-030-031-031500-
...NORTHWEST COLORADO...

CITY           SKY/WX    TMP DP  RH WIND       PRES   REMARKS
CRAIG          CLOUDY    61  55  81 CALM      30.18S
HAYDEN         CLOUDY    57  52  82 CALM      30.21R
MEEKER         CLOUDY    60  55  83 E5        30.20R
MOUNT WERNER   NOT AVBL
STEAMBOAT SPGS CLOUDY    58  50  74 E3        30.22R
WALDEN         CLOUDY    54  45  71 SE5       30.30S
$$

COZ006>008-011-031500-
...WEST CENTRAL VALLEYS...

CITY           SKY/WX    TMP DP  RH WIND       PRES   REMARKS
GRAND JUNCTION MOSUNNY   65  57  75 E8        30.10S
MONTROSE       PTSUNNY   62  58  86 SE3       30.20S
EAGLE          CLOUDY    57  55  94 CALM      30.25R
RIFLE          LGT RAIN  62  58  86 SE3       30.18R
DELTA          PTSUNNY   67  59  75 NE5       30.16S
NUCLA          PTSUNNY   61  55  82 SE5       30.24R
$$

COZ017>023-064>068-031500-
...SOUTHWEST COLORADO...

CITY           SKY/WX    TMP DP  RH WIND       PRES   REMARKS
DURANGO        SUNNY     57  54  89 CALM      30.26R
CORTEZ         SUNNY     61  56  83 NE3       30.21R
PAGOSA SPRINGS SUNNY     57  55  94 CALM      30.32S
TELLURIDE      MOSUNNY   55  49  81 CALM      30.40R
WOLF CREEK PAS NOT AVBL
$$

COZ009-010-012-014-032>034-037-058>063-031500-
...CENTRAL COLORADO...

CITY           SKY/WX    TMP DP  RH WIND       PRES   REMARKS
ASPEN          LGT RAIN  54  52  93 CALM      30.30R
BUENA VISTA    CLOUDY    55  51  85 CALM      30.33S
COPPER MTN     CLOUDY    52  32  46 S8        30.56R
BERTHOUD PASS  CLOUDY    43  32  65 SE23G31   30.61F
COTTONWOOD PAS CLOUDY    52  45  76 SE6       30.44S
GUNNISON       CLOUDY    55  50  82 CALM      30.34R
KREMMLING      CLOUDY    57  43  58 CALM      30.28S
LEADVILLE      FOG       47  47 100 W3        30.42F VSB 3/4
MONARCH PASS   RAIN      43  37  81 E7        30.65S
SALIDA         CLOUDY    59  54  82 W3        30.38R
SUNLIGHT       CLOUDY    48  46  93 CALM      30.50S
WILKERSON PASS CLOUDY    46  41  81 SW7       30.55F
$$

COZ069>075-031500-
...SAN LUIS VALLEY/SANGRE DE CRISTO MOUNTAINS...

CITY           SKY/WX    TMP DP  RH WIND       PRES   REMARKS
ALAMOSA        CLOUDY    56  53  90 CALM      30.29S
LA VETA PASS   CLOUDY    46  45  93 MISG      30.43S
SAGUACHE       CLOUDY    55  54  94 CALM      30.33R
$$

COZ035-036-038>040-031500-
...NORTHERN COLORADO FRONT RANGE...

CITY           SKY/WX    TMP DP  RH WIND       PRES   REMARKS
DENVER INTL AP CLOUDY    71  51  49 SW3       30.10R
DMNS CITY PARK   N/A     70  55  57 NE2G9     30.10S
AURORA         PTSUNNY   71  53  53 SE6       30.12S
FRONT RANGE AP PTSUNNY   70  50  49 S9        30.12R
ERIE MUNI ARPT CLOUDY    65  57  75 CALM      30.08S
BOULDER MUN AP CLOUDY    70  52  52 N3        30.09S
CENTENNIAL     CLOUDY    68  53  58 E5        30.12S
BROOMFIELD     PTSUNNY   68  50  52 N10       30.11S
FORT COLLINS   PTSUNNY   66  54  63 NW3       30.09S
LONGMONT       PTSUNNY   70  55  59 CALM      30.09F
$$

COZ041-046-047-076>085-087-088-031500-
...PIKES PEAK/PALMER DIVIDE AND SOUTHERN FOOTHILLS...

CITY           SKY/WX    TMP DP  RH WIND       PRES   REMARKS
COLO. SPRINGS  CLOUDY    68  52  56 CALM      30.17S
A. F. ACADEMY  CLOUDY    62  52  68 N8        30.18F
ELLICOTT       CLOUDY   N/A N/A N/A CALM      30.16R
FALCON         CLOUDY    64  53  68 NE3       30.23R
FORT CARSON    PTSUNNY   67  53  59 N6        30.14R
LIMON          CLOUDY    70  56  61 CALM      30.12S
MONUMENT HILL  NOT AVBL
TRINIDAD       PTSUNNY   69  53  56 W13       30.13R
$$

COZ042>045-048>051-090-091-031500-
...NORTHEAST COLORADO...

CITY           SKY/WX    TMP DP  RH WIND       PRES   REMARKS
GREELEY ARPT   PTSUNNY   66  54  63 CALM      30.07S
AKRON          PTSUNNY   75  60  59 SW9       30.06S
BURLINGTON     MOSUNNY   75  64  68 CALM      30.06R
WRAY           PTSUNNY   70  58  64 E6        30.03S
STERLING       PTSUNNY   66  55  68 CALM      30.02R
HOLYOKE        PTSUNNY   73  61  64 SE8       30.04S
FORT MORGAN    PTSUNNY   71  52  51 SW5       30.06S
$$

COZ086-089-092>099-031500-
...SOUTHEAST COLORADO...

CITY           SKY/WX    TMP DP  RH WIND       PRES   REMARKS
PUEBLO         CLOUDY    73  55  53 S3        30.06S
LA JUNTA       CLOUDY    74  55  51 NW3       30.03S
LAMAR          PTSUNNY   75  66  73 CALM      29.99S HAZE
SPRINGFIELD      N/A     77  60  55 SW10      30.03F
$$



USA.gov is the U.S. government's official web portal to all federal, state and local government web resources and services.